Location: Dal�� Lhota
(48.7500°N, 14.0167°E)
Time: 09:29:17
(UTC+00:00)

Transit 2A Rocket - Visible Passes

Search period start: 31 July 2021 00:00
Search period end: 10 August 2021 00:00
Orbit: 589 x 913 km, 66.7° (Epoch: 30 July)

Date Brightness Start Highest point End Pass type
(mag) Time Alt. Az. Time Alt. Az. Time Alt. Az.
31 Jul 6.9 19:49:28 10° NNW 19:53:35 22° NNE 19:57:56 10° E visible
31 Jul 5.2 21:31:31 10° NNW 21:36:59 77° NE 21:39:25 36° SE visible
31 Jul 6.7 23:14:57 10° WNW 23:19:08 22° WSW 23:19:18 22° WSW visible
01 Aug 5.7 20:48:56 10° NNW 20:54:15 52° NE 20:57:42 23° ESE visible
01 Aug 6.1 22:31:45 10° NW 22:36:44 34° WSW 22:37:34 33° SW visible
02 Aug 6.2 20:06:25 10° NNW 20:11:24 36° NE 20:16:01 13° ESE visible
02 Aug 5.5 21:48:51 10° NW 21:54:15 54° WSW 21:55:53 40° SSW visible
03 Aug 6.6 19:23:56 10° NNW 19:28:29 27° NE 19:33:17 10° E visible
03 Aug 5.2 21:06:07 10° NW 21:11:39 82° WSW 21:14:15 35° SSE visible
03 Aug 7.1 22:50:13 10° WNW 22:53:35 16° WSW 22:54:08 16° WSW visible
04 Aug 5.3 20:23:30 10° NNW 20:28:58 67° NE 20:32:40 23° SE visible
04 Aug 6.6 22:06:41 10° WNW 22:11:14 26° WSW 22:12:33 24° SW visible
05 Aug 5.8 19:40:56 10° NNW 19:46:11 46° NE 19:51:06 13° ESE visible
05 Aug 6.0 21:23:36 10° NW 21:28:48 40° WSW 21:31:00 29° SSW visible
06 Aug 5.4 20:40:47 10° NW 20:46:16 63° WSW 20:49:30 27° SSE visible
06 Aug 7.5 22:26:09 10° W 22:27:58 11° WSW 22:29:23 11° WSW visible
07 Aug 5.2 19:58:04 10° NW 20:03:39 86° ENE 20:08:02 19° SE visible
07 Aug 7.1 21:41:46 10° WNW 21:45:41 19° WSW 21:47:56 16° SW visible
08 Aug 5.5 19:15:29 10° NNW 19:20:56 59° NE 19:26:38 11° SE visible
08 Aug 6.5 20:58:27 10° NW 21:03:20 30° WSW 21:06:32 19° SSW visible
09 Aug 5.9 20:15:29 10° NW 20:20:51 47° WSW 20:25:11 17° S visible
